DW6558 Weather Reports


time (UTC)temp
C
wind
direction
speed
KPH
gust
KPH
rain 1hr
cm
rain 24hr
cm
rain mn
cm
humidity
%
barometer
mb
20260902113509 10 56 1.6 4.8 0.00 0.00 0.00 81 932.5
20260902113004 10 42 0.0 0.0 0.00 0.00 0.00 81 932.3
20260902112459 10 65 1.6 1.6 0.00 0.00 0.00 81 932.4
20260902111955 10 76 3.2 8.0 0.00 0.00 0.00 82 932.3
20260902111452 10 61 0.0 3.2 0.00 0.00 0.00 82 932.5
20260902110947 10 60 0.0 0.0 0.00 0.00 0.00 82 932.5
20260902110443 10 70 3.2 3.2 0.00 0.00 0.00 83 932.3
20260902105937 10 61 0.0 1.6 0.00 0.00 0.00 82 932.3
20260902105432 10 52 0.0 0.0 0.00 0.00 0.00 81 932.5
20260902104927 10 60 1.6 4.8 0.00 0.00 0.00 80 932.1
20260902104423 10 91 6.4 8.0 0.00 0.00 0.00 81 932.3
20260902103922 10 90 4.8 4.8 0.00 0.00 0.00 81 932.1
20260902103418 10 90 4.8 4.8 0.00 0.00 0.00 82 932.3
20260902102913 10 90 3.2 4.8 0.00 0.00 0.00 82 932.3
20260902102410 10 76 0.0 0.0 0.00 0.00 0.00 82 932.0
20260902101906 10 75 0.0 0.0 0.00 0.00 0.00 82 932.3
20260902101400 10 55 0.0 0.0 0.00 0.00 0.00 83 932.0
20260902100900 10 48 0.0 0.0 0.00 0.00 0.00 83 931.9
20260902100359 10 48 0.0 0.0 0.00 0.00 0.00 83 932.3
20260902095855 10 45 0.0 0.0 0.00 0.00 0.00 82 932.0
20260902095355 10 46 0.0 0.0 0.00 0.00 0.00 81 932.3
20260902094854 11 46 0.0 0.0 0.00 0.00 0.00 80 932.3
20260902094351 11 47 0.0 0.0 0.00 0.00 0.00 79 932.5
20260902093850 11 67 1.6 3.2 0.00 0.00 0.00 78 932.5
20260902093345 12 44 0.0 3.2 0.00 0.00 0.00 77 932.6
20260902092844 12 59 1.6 4.8 0.00 0.00 0.00 77 932.4
20260902092335 12 72 4.8 4.8 0.00 0.00 0.00 78 932.6
20260902091834 12 52 0.0 3.2 0.00 0.00 0.00 79 932.3
20260902091330 11 34 0.0 0.0 0.00 0.00 0.00 79 932.5
20260902090827 11 42 0.0 0.0 0.00 0.00 0.00 80 932.4
20260902090326 11 40 0.0 0.0 0.00 0.00 0.00 80 932.4
20260902085825 11 40 0.0 0.0 0.00 0.00 0.00 80 932.3
20260902085320 11 39 0.0 0.0 0.00 0.00 0.00 79 932.4
20260902084816 11 44 0.0 0.0 0.00 0.00 0.00 79 932.5
20260902084313 11 43 0.0 0.0 0.00 0.00 0.00 79 932.5
20260902083807 12 61 0.0 0.0 0.00 0.00 0.00 78 932.4
20260902083307 12 79 3.2 3.2 0.00 0.00 0.00 78 932.1
20260902082802 12 70 0.0 1.6 0.00 0.00 0.00 78 932.7
20260902082259 12 25 0.0 0.0 0.00 0.00 0.00 77 932.5
20260902081755 12 17 0.0 0.0 0.00 0.00 0.00 76 932.4
20260902081250 12 73 0.0 0.0 0.00 0.00 0.00 76 932.5
20260902080745 12 75 0.0 0.0 0.00 0.00 0.00 76 932.4
20260902080242 12 52 0.0 3.2 0.00 0.00 0.00 76 932.3
20260902075741 12 83 0.0 8.0 0.00 0.00 0.00 78 932.3
20260902075238 12 69 0.0 0.0 0.00 0.00 0.00 79 932.0
20260902074737 12 54 0.0 3.2 0.00 0.00 0.00 78 932.3
20260902074233 12 87 0.0 1.6 0.00 0.00 0.00 78 932.4
20260902073728 13 95 8.0 9.7 0.00 0.00 0.00 77 932.3
20260902073224 13 92 4.8 9.7 0.00 0.00 0.00 77 932.0
20260902072720 13 85 0.0 0.0 0.00 0.00 0.00 76 932.3
20260902072216 13 66 0.0 0.0 0.00 0.00 0.00 76 932.6
20260902071712 13 79 0.0 0.0 0.00 0.00 0.00 75 932.5
20260902071207 13 84 0.0 0.0 0.00 0.00 0.00 76 932.5
20260902070703 13 71 0.0 3.2 0.00 0.00 0.00 77 932.1
20260902070202 13 119 0.0 1.6 0.00 0.00 0.00 77 932.4
20260902065701 13 113 1.6 4.8 0.00 0.00 0.00 77 932.1
20260902065157 13 120 3.2 4.8 0.00 0.00 0.00 76 932.3
20260902064652 13 119 0.0 0.0 0.00 0.00 0.00 76 932.1
20260902064148 13 60 0.0 0.0 0.00 0.00 0.00 75 931.9
20260902063643 13 127 3.2 4.8 0.00 0.00 0.00 75 932.1
20260902063138 13 63 0.0 0.0 0.00 0.00 0.00 76 932.1
20260902062637 13 46 0.0 0.0 0.00 0.00 0.00 76 931.9
20260902062132 13 49 0.0 0.0 0.00 0.00 0.00 76 931.9
20260902061631 13 52 0.0 3.2 0.00 0.00 0.00 76 932.0
20260902061127 13 37 0.0 0.0 0.00 0.00 0.00 77 932.1
20260902060624 13 44 0.0 0.0 0.00 0.00 0.00 77 932.0
20260902060120 13 89 1.6 3.2 0.00 0.00 0.00 77 932.1
20260902055615 13 63 0.0 1.6 0.00 0.00 0.00 76 932.1
20260902055111 13 30 0.0 0.0 0.00 0.00 0.00 76 932.0
20260902054605 13 27 0.0 0.0 0.00 0.00 0.00 75 931.9
20260902054102 13 43 0.0 0.0 0.00 0.00 0.00 75 932.1
20260902053557 13 8 0.0 4.8 0.00 0.00 0.00 74 932.3
20260902053051 14 39 0.0 0.0 0.00 0.00 0.00 73 932.4
20260902052551 14 42 0.0 0.0 0.00 0.00 0.00 72 932.3
20260902052047 15 45 0.0 1.6 0.00 0.00 0.00 71 932.4
20260902051546 15 11 3.2 3.2 0.00 0.00 0.00 71 932.3
20260902051045 15 83 1.6 1.6 0.00 0.00 0.00 71 932.3
20260902050540 15 114 0.0 3.2 0.00 0.00 0.00 70 932.4
20260902050035 15 107 0.0 8.0 0.00 0.00 0.00 69 932.6
20260902045531 15 96 0.0 0.0 0.00 0.00 0.00 67 932.8
20260902045028 15 96 0.0 0.0 0.00 0.00 0.00 68 932.9
20260902044527 15 318 1.6 4.8 0.00 0.00 0.00 67 932.7
20260902044023 15 19 0.0 0.0 0.00 0.00 0.00 69 932.1
20260902043519 15 90 0.0 9.7 0.00 0.00 0.00 70 932.1
20260902043018 15 86 1.6 8.0 0.00 0.00 0.00 70 932.1
20260902042518 15 96 0.0 3.2 0.00 0.00 0.00 71 932.3
20260902042013 15 64 0.0 0.0 0.00 0.00 0.00 70 932.0
20260902041508 15 70 0.0 4.8 0.00 0.00 0.00 70 932.4
20260902041003 15 48 0.0 0.0 0.00 0.00 0.00 70 932.6
20260902040502 15 29 0.0 0.0 0.00 0.00 0.00 69 932.6
20260902040001 15 46 0.0 0.0 0.00 0.00 0.00 68 932.5
20260902035456 16 70 3.2 4.8 0.00 0.00 0.00 67 932.4
20260902034957 16 2 0.0 3.2 0.00 0.00 0.00 66 932.1
20260902034457 16 350 0.0 8.0 0.00 0.00 0.00 67 932.1
20260902033956 16 31 0.0 4.8 0.00 0.00 0.00 66 932.3
20260902033455 16 105 0.0 0.0 0.00 0.00 0.00 67 932.3
20260902032954 16 15 1.6 3.2 0.00 0.00 0.00 67 931.9
20260902032449 15 7 0.0 0.0 0.00 0.00 0.00 69 931.6
20260902031944 15 21 0.0 0.0 0.00 0.00 0.00 69 931.1
20260902031439 15 45 0.0 0.0 0.00 0.00 0.00 69 931.0
20260902030936 16 61 0.0 0.0 0.00 0.00 0.00 69 931.0
20260902030430 16 57 0.0 0.0 0.00 0.00 0.00 68 930.9
20260902025929 16 45 0.0 0.0 0.00 0.00 0.00 67 930.7
20260902025425 16 48 0.0 0.0 0.00 0.00 0.00 67 930.8
20260902024920 16 53 0.0 0.0 0.00 0.00 0.00 67 931.0
20260902024415 16 92 0.0 0.0 0.00 0.00 0.00 67 931.8
20260902023910 16 42 0.0 0.0 0.00 0.00 0.00 67 931.9
20260902023406 16 39 0.0 4.8 0.00 0.00 0.00 66 932.0
20260902022905 16 117 0.0 8.0 0.00 0.00 0.00 66 932.1
20260902022400 16 90 4.8 9.7 0.00 0.00 0.00 65 931.9
20260902021857 17 117 4.8 8.0 0.00 0.00 0.00 65 931.8
20260902021356 17 93 0.0 0.0 0.00 0.00 0.00 63 931.9
20260902020852 17 92 1.6 1.6 0.00 0.00 0.00 62 931.8
20260902020348 17 75 0.0 0.0 0.00 0.00 0.00 62 931.7
20260902015843 18 48 0.0 4.8 0.00 0.00 0.00 60 931.7
20260902015338 19 83 0.0 3.2 0.00 0.00 0.00 56 931.8
20260902014834 20 93 1.6 16.1 0.00 0.00 0.00 53 931.8
20260902014331 20 131 6.4 14.5 0.00 0.00 0.00 52 931.8
20260902013829 20 146 3.2 12.9 0.00 0.00 0.00 52 932.0
20260902013325 20 198 9.7 14.5 0.00 0.00 0.00 52 932.0
20260902012820 20 156 3.2 11.3 0.00 0.00 0.00 51 932.0
20260902012316 21 46 8.0 14.5 0.00 0.00 0.00 50 931.8
20260902011811 21 150 8.0 16.1 0.00 0.00 0.00 48 931.8
20260902011306 22 300 6.4 14.5 0.00 0.00 0.00 40 932.0
20260902010805 22 263 6.4 11.3 0.00 0.00 0.00 39 932.1
20260902010301 22 218 8.0 16.1 0.00 0.00 0.00 38 932.0
20260902005759 22 230 9.7 22.5 0.00 0.00 0.00 38 932.3
20260902005255 22 289 3.2 8.0 0.00 0.00 0.00 37 932.5
20260902004755 23 219 6.4 14.5 0.00 0.00 0.00 38 932.4
20260902004250 23 215 6.4 14.5 0.00 0.00 0.00 36 932.3
20260902003744 23 154 8.0 14.5 0.00 0.00 0.00 38 932.4
20260902003240 23 223 8.0 16.1 0.00 0.00 0.00 37 932.3
20260902002736 23 196 8.0 11.3 0.00 0.00 0.00 37 932.3
20260902002235 23 222 8.0 16.1 0.00 0.00 0.00 36 932.4
20260902001731 23 166 11.3 17.7 0.00 0.00 0.00 36 932.6
20260902001231 23 286 4.8 8.0 0.00 0.00 0.00 36 932.7
20260902000726 23 247 6.4 12.9 0.00 0.00 0.00 36 932.6
20260902000221 23 238 9.7 16.1 0.00 0.00 0.00 37 932.9
20260901235721 23 233 4.8 4.8 0.00 0.00 0.00 38 933.1
20260901235216 23 281 9.7 17.7 0.00 0.00 0.00 37 932.8
20260901234715 24 192 9.7 17.7 0.00 0.00 0.00 36 933.1
20260901234210 24 244 9.7 20.9 0.00 0.00 0.00 36 932.9
20260901233710 23 221 12.9 24.1 0.00 0.00 0.00 35 933.1
20260901233206 24 271 14.5 24.1 0.00 0.00 0.00 34 932.8
20260901232701 24 188 12.9 27.4 0.00 0.00 0.00 34 932.9
20260901232156 25 248 11.3 16.1 0.00 0.00 0.00 34 932.8
20260901231653 25 296 4.8 20.9 0.00 0.00 0.00 34 932.8
20260901231148 24 230 11.3 20.9 0.00 0.00 0.00 33 932.7
20260901230639 23 210 6.4 20.9 0.00 0.00 0.00 35 932.8
20260901230139 24 121 11.3 20.9 0.00 0.00 0.00 35 932.5
20260901225633 23 136 3.2 17.7 0.00 0.00 0.00 36 932.8
20260901225128 25 225 11.3 17.7 0.00 0.00 0.00 35 932.7
20260901224624 25 215 11.3 17.7 0.00 0.00 0.00 35 932.7
20260901224120 25 236 9.7 14.5 0.00 0.00 0.00 35 932.8
20260901223615 23 186 8.0 12.9 0.00 0.00 0.00 36 933.1
20260901223110 23 197 12.9 27.4 0.00 0.00 0.00 36 933.1
20260901222607 23 182 9.7 20.9 0.00 0.00 0.00 37 933.2
20260901222102 24 182 6.4 12.9 0.00 0.00 0.00 36 933.3
20260901221558 24 226 11.3 16.1 0.00 0.00 0.00 38 933.5
20260901221054 23 252 8.0 16.1 0.00 0.00 0.00 40 933.6
20260901220553 24 247 14.5 16.1 0.00 0.00 0.00 39 933.6
20260901220052 24 237 8.0 17.7 0.00 0.00 0.00 39 933.5
20260901215550 24 210 16.1 22.5 0.00 0.00 0.00 39 933.6
20260901215045 23 264 9.7 16.1 0.00 0.00 0.00 42 933.6
20260901214543 23 250 12.9 14.5 0.00 0.00 0.00 41 933.6
20260901214037 24 269 11.3 16.1 0.00 0.00 0.00 41 933.7
20260901213531 23 271 8.0 14.5 0.00 0.00 0.00 42 933.9
20260901213031 22 257 8.0 20.9 0.00 0.00 0.00 43 933.9
20260901212531 23 315 9.7 12.9 0.00 0.00 0.00 42 934.0
20260901212028 23 308 14.5 22.5 0.00 0.00 0.00 43 933.9
20260901211523 22 238 12.9 16.1 0.00 0.00 0.00 44 933.9
20260901211019 22 294 8.0 16.1 0.00 0.00 0.00 44 934.1
20260901210515 22 245 8.0 17.7 0.00 0.00 0.00 44 934.1
20260901210011 23 221 9.7 12.9 0.00 0.00 0.00 41 934.2
20260901205506 22 216 9.7 16.1 0.00 0.00 0.00 44 934.2
20260901205000 23 260 6.4 12.9 0.00 0.00 0.00 41 934.5
20260901204457 22 123 6.4 22.5 0.00 0.00 0.00 42 934.5
20260901203956 22 322 8.0 14.5 0.00 0.00 0.00 44 934.7
20260901203451 22 312 14.5 16.1 0.00 0.00 0.00 44 934.5
20260901202946 22 243 14.5 24.1 0.00 0.00 0.00 45 934.5
20260901202442 22 239 16.1 22.5 0.00 0.00 0.00 45 934.5
20260901201938 22 277 6.4 11.3 0.00 0.00 0.00 46 934.5
20260901201437 22 224 9.7 29.0 0.00 0.00 0.00 47 934.5
20260901200932 22 205 12.9 20.9 0.00 0.00 0.00 47 934.5
20260901200427 22 273 8.0 12.9 0.00 0.00 0.00 49 934.5
20260901195926 21 247 12.9 14.5 0.00 0.00 0.00 48 934.5
20260901195425 21 294 4.8 16.1 0.00 0.00 0.00 49 934.7
20260901194920 21 213 19.3 24.1 0.00 0.00 0.00 46 934.7
20260901194414 22 234 8.0 17.7 0.00 0.00 0.00 48 934.5
20260901193911 22 297 9.7 16.1 0.00 0.00 0.00 47 934.9
20260901193409 22 220 8.0 16.1 0.00 0.00 0.00 47 934.8
20260901192904 22 245 11.3 17.7 0.00 0.00 0.00 45 934.8
20260901192400 22 286 4.8 11.3 0.00 0.00 0.00 45 934.9
20260901191856 22 254 8.0 14.5 0.00 0.00 0.00 46 934.9
20260901191351 22 208 14.5 25.7 0.00 0.00 0.00 46 935.0
20260901190847 23 289 4.8 11.3 0.00 0.00 0.00 46 934.8
20260901190346 22 244 17.7 24.1 0.00 0.00 0.00 47 935.0
20260901185844 22 302 11.3 29.0 0.00 0.00 0.00 48 934.8
20260901185338 22 225 19.3 24.1 0.00 0.00 0.00 46 934.9
20260901184834 22 195 14.5 22.5 0.00 0.00 0.00 46 935.2
20260901184330 22 265 14.5 20.9 0.00 0.00 0.00 46 935.3
20260901183825 22 349 4.8 12.9 0.00 0.00 0.00 47 935.2
20260901183324 22 249 17.7 22.5 0.00 0.00 0.00 45 935.5
20260901182821 23 223 14.5 20.9 0.00 0.00 0.00 45 935.5
20260901182320 23 272 12.9 17.7 0.00 0.00 0.00 44 935.5
20260901181815 23 208 14.5 17.7 0.00 0.00 0.00 45 935.3
20260901181315 22 291 9.7 14.5 0.00 0.00 0.00 48 935.5
20260901180808 22 243 9.7 16.1 0.00 0.00 0.00 50 935.5
20260901180308 22 237 12.9 17.7 0.00 0.00 0.00 49 935.6
20260901175807 22 296 4.8 11.3 0.00 0.00 0.00 51 935.3
20260901175305 21 260 14.5 20.9 0.00 0.00 0.00 51 935.2
20260901174756 22 185 9.7 17.7 0.00 0.00 0.00 49 935.3
20260901174253 21 251 12.9 14.5 0.00 0.00 0.00 52 935.3
20260901173748 21 220 9.7 14.5 0.00 0.00 0.00 52 935.5
20260901173243 21 225 9.7 14.5 0.00 0.00 0.00 52 935.3
20260901172740 21 208 9.7 14.5 0.00 0.00 0.00 50 935.5
20260901172238 21 223 11.3 14.5 0.00 0.00 0.00 51 935.6
20260901171737 21 200 11.3 14.5 0.00 0.00 0.00 52 935.5
20260901171236 21 183 14.5 17.7 0.00 0.00 0.00 53 935.6
20260901170735 21 213 4.8 16.1 0.00 0.00 0.00 54 935.3
20260901170230 20 231 8.0 11.3 0.00 0.00 0.00 55 935.7
20260901165729 20 222 9.7 16.1 0.00 0.00 0.00 55 935.5
20260901165229 19 321 3.2 4.8 0.00 0.00 0.00 57 935.5
20260901164725 20 173 4.8 4.8 0.00 0.00 0.00 56 935.7
20260901164220 20 208 14.5 16.1 0.00 0.00 0.00 56 935.6
20260901163715 19 248 0.0 4.8 0.00 0.00 0.00 61 935.5
20260901163214 18 176 8.0 11.3 0.00 0.00 0.00 60 935.6
20260901162710 17 180 8.0 12.9 0.00 0.00 0.00 63 935.6
20260901162209 17 59 0.0 0.0 0.00 0.00 0.00 67 935.6
20260901161709 16 357 0.0 4.8 0.00 0.00 0.00 67 935.2
20260901161209 16 82 0.0 0.0 0.00 0.00 0.00 70 935.6
20260901160705 16 76 0.0 0.0 0.00 0.00 0.00 72 935.6
20260901160200 16 27 0.0 0.0 0.00 0.00 0.00 71 935.7
20260901155659 16 259 0.0 0.0 0.00 0.00 0.00 74 935.7
20260901155154 15 39 0.0 0.0 0.00 0.00 0.00 74 935.5
20260901154649 15 29 0.0 0.0 0.00 0.00 0.00 74 935.6
20260901154138 15 16 0.0 0.0 0.00 0.00 0.00 74 935.5
20260901153634 15 41 0.0 0.0 0.00 0.00 0.00 75 935.5
20260901153132 14 359 3.2 4.8 0.00 0.00 0.00 76 935.6
20260901152628 14 355 0.0 0.0 0.00 0.00 0.00 76 935.5
20260901152126 14 10 0.0 3.2 0.00 0.00 0.00 76 935.5
20260901151622 15 41 0.0 1.6 0.00 0.00 0.00 75 935.6
20260901151122 15 52 0.0 0.0 0.00 0.00 0.00 75 935.5
20260901150621 15 63 0.0 0.0 0.00 0.00 0.00 75 935.5
20260901150119 15 49 0.0 0.0 0.00 0.00 0.00 77 935.5
20260901145613 14 53 0.0 0.0 0.00 0.00 0.00 79 935.6
20260901145112 13 50 0.0 0.0 0.00 0.00 0.00 81 935.6
20260901144608 13 68 0.0 0.0 0.00 0.00 0.00 82 935.3
20260901144102 13 69 0.0 0.0 0.00 0.00 0.00 82 935.8
20260901143558 13 61 0.0 0.0 0.00 0.00 0.00 83 935.6
20260901143054 13 83 0.0 0.0 0.00 0.00 0.00 83 935.6
20260901142549 12 50 0.0 0.0 0.00 0.00 0.00 85 935.7
20260901142049 12 57 0.0 0.0 0.00 0.00 0.00 85 935.8
20260901141544 11 49 0.0 0.0 0.00 0.00 0.00 88 935.7
20260901141040 11 62 0.0 0.0 0.00 0.00 0.00 89 935.9
20260901140538 11 39 0.0 0.0 0.00 0.00 0.00 90 936.0
20260901140033 11 49 0.0 0.0 0.00 0.00 0.00 92 936.0
20260901135532 11 58 0.0 0.0 0.00 0.00 0.00 93 935.8
20260901135027 10 42 0.0 0.0 0.00 0.00 0.00 93 935.7
20260901134524 10 44 0.0 0.0 0.00 0.00 0.00 94 935.5
20260901134023 10 47 0.0 0.0 0.00 0.00 0.00 95 934.5
20260901133522 9 60 0.0 0.0 0.00 0.00 0.00 95 933.4
20260901133021 9 53 0.0 0.0 0.00 0.00 0.00 95 933.2
20260901132520 9 91 0.0 0.0 0.00 0.00 0.00 95 932.7
20260901132015 8 81 0.0 0.0 0.00 0.00 0.00 96 932.7
20260901131515 8 61 0.0 0.0 0.00 0.00 0.00 96 932.7
20260901131010 8 46 0.0 0.0 0.00 0.00 0.00 96 932.8
20260901130505 8 57 0.0 0.0 0.00 0.00 0.00 96 932.8
20260901130002 8 47 0.0 0.0 0.00 0.00 0.00 96 933.4
20260901125457 8 39 0.0 0.0 0.00 0.00 0.00 96 934.2
20260901124957 8 55 0.0 0.0 0.00 0.00 0.00 95 934.7
20260901124452 9 36 0.0 0.0 0.00 0.00 0.00 95 934.5
20260901123947 9 39 0.0 0.0 0.00 0.00 0.00 95 934.5
20260901123442 10 43 0.0 0.0 0.00 0.00 0.00 95 934.5
20260901122940 10 43 0.0 0.0 0.00 0.00 0.00 95 934.4
20260901122439 10 72 0.0 0.0 0.00 0.00 0.00 95 934.7
20260901121939 10 161 0.0 0.0 0.00 0.00 0.00 95 934.4
20260901121434 10 49 0.0 0.0 0.00 0.00 0.00 95 934.5
20260901120929 10 74 0.0 0.0 0.00 0.00 0.00 95 934.5
20260901120428 10 72 0.0 0.0 0.00 0.00 0.00 95 934.4
20260901115924 10 67 0.0 0.0 0.00 0.00 0.00 95 934.3
20260901115424 10 54 0.0 0.0 0.00 0.00 0.00 95 934.5
20260901114922 10 45 0.0 0.0 0.00 0.00 0.00 95 934.2
20260901114417 10 39 0.0 0.0 0.00 0.00 0.00 95 934.4
20260901113915 10 54 0.0 0.0 0.00 0.00 0.00 95 934.8